Time,TemperatureF,DewpointF,PressureIn,WindDirection,WindDirectionDegrees,WindSpeedMPH,WindSpeedGustMPH,Humidity,HourlyPrecipIn,Conditions,Clouds,dailyrainin,SoftwareType,DateUTC
2013-02-06 00:02:00,54.0,-99.9,-100.00,SW,220,14.0,18.0,-999,-99.99,,,-99.99,,2013-02-06 05:02:00,
2013-02-06 00:12:00,54.0,-99.9,-100.00,SW,225,15.0,18.0,-999,-99.99,,,-99.99,,2013-02-06 05:12:00,
2013-02-06 00:22:00,54.0,-99.9,-100.00,WSW,240,15.0,19.0,-999,-99.99,,,-99.99,,2013-02-06 05:22:00,
2013-02-06 00:32:00,54.0,-99.9,-100.00,SW,230,15.0,21.0,-999,-99.99,,,-99.99,,2013-02-06 05:32:00,
2013-02-06 00:42:00,54.0,-99.9,-100.00,SW,230,16.0,20.0,-999,-99.99,,,-99.99,,2013-02-06 05:42:00,
2013-02-06 00:53:00,54.0,-99.9,-100.00,SW,220,15.0,19.0,-999,-99.99,,,-99.99,,2013-02-06 05:53:00,
2013-02-06 01:02:00,54.0,-99.9,-100.00,SW,230,14.0,19.0,-999,-99.99,,,-99.99,,2013-02-06 06:02:00,
2013-02-06 01:11:00,54.0,-99.9,-100.00,SW,230,14.0,19.0,-999,-99.99,,,-99.99,,2013-02-06 06:11:00,
2013-02-06 01:22:00,53.0,-99.9,-100.00,SW,235,14.0,19.0,-999,-99.99,,,-99.99,,2013-02-06 06:22:00,
2013-02-06 01:32:00,54.0,-99.9,-100.00,SW,235,16.0,20.0,-999,-99.99,,,-99.99,,2013-02-06 06:32:00,
2013-02-06 01:42:00,54.0,-99.9,-100.00,WSW,240,15.0,20.0,-999,-99.99,,,-99.99,,2013-02-06 06:42:00,
2013-02-06 01:52:00,54.0,-99.9,-100.00,WSW,245,16.0,19.0,-999,-99.99,,,-99.99,,2013-02-06 06:52:00,
2013-02-06 02:02:00,54.0,-99.9,-100.00,WSW,255,15.0,19.0,-999,-99.99,,,-99.99,,2013-02-06 07:02:00,
2013-02-06 02:11:00,54.0,-99.9,-100.00,WSW,255,16.0,19.0,-999,-99.99,,,-99.99,,2013-02-06 07:11:00,
2013-02-06 02:22:00,54.0,-99.9,-100.00,WSW,255,15.0,19.0,-999,-99.99,,,-99.99,,2013-02-06 07:22:00,
2013-02-06 02:32:00,56.0,-99.9,-100.00,WSW,255,16.0,21.0,-999,-99.99,,,-99.99,,2013-02-06 07:32:00,
2013-02-06 02:42:00,56.0,-99.9,-100.00,WSW,255,16.0,27.0,-999,-99.99,,,-99.99,,2013-02-06 07:42:00,
2013-02-06 02:52:00,56.0,-99.9,-100.00,WSW,250,16.0,21.0,-999,-99.99,,,-99.99,,2013-02-06 07:52:00,
2013-02-06 03:01:00,56.0,-99.9,-100.00,West,260,17.0,22.0,-999,-99.99,,,-99.99,,2013-02-06 08:01:00,
2013-02-06 03:11:00,55.0,-99.9,-100.00,West,265,14.0,20.0,-999,-99.99,,,-99.99,,2013-02-06 08:11:00,
2013-02-06 03:22:00,55.0,-99.9,-100.00,West,265,15.0,20.0,-999,-99.99,,,-99.99,,2013-02-06 08:22:00,
2013-02-06 03:32:00,54.0,-99.9,-100.00,West,265,14.0,19.0,-999,-99.99,,,-99.99,,2013-02-06 08:32:00,
2013-02-06 03:42:00,54.0,-99.9,-100.00,West,265,14.0,19.0,-999,-99.99,,,-99.99,,2013-02-06 08:42:00,
2013-02-06 03:53:00,54.0,-99.9,-100.00,West,260,14.0,19.0,-999,-99.99,,,-99.99,,2013-02-06 08:53:00,
2013-02-06 04:02:00,54.0,-99.9,-100.00,West,265,13.0,18.0,-999,-99.99,,,-99.99,,2013-02-06 09:02:00,
2013-02-06 04:11:00,54.0,-99.9,-100.00,West,260,13.0,16.0,-999,-99.99,,,-99.99,,2013-02-06 09:11:00,
2013-02-06 04:22:00,54.0,-99.9,-100.00,West,265,12.0,14.0,-999,-99.99,,,-99.99,,2013-02-06 09:22:00,
2013-02-06 04:32:00,54.0,-99.9,-100.00,West,265,11.0,14.0,-999,-99.99,,,-99.99,,2013-02-06 09:32:00,
2013-02-06 04:42:00,54.0,-99.9,-100.00,West,260,11.0,14.0,-999,-99.99,,,-99.99,,2013-02-06 09:42:00,
2013-02-06 04:52:00,54.0,-99.9,-100.00,West,270,11.0,14.0,-999,-99.99,,,-99.99,,2013-02-06 09:52:00,
2013-02-06 05:01:00,54.0,-99.9,-100.00,West,270,11.0,16.0,-999,-99.99,,,-99.99,,2013-02-06 10:01:00,
2013-02-06 05:11:00,54.0,-99.9,-100.00,West,265,11.0,16.0,-999,-99.99,,,-99.99,,2013-02-06 10:11:00,
2013-02-06 05:22:00,54.0,-99.9,-100.00,West,265,11.0,16.0,-999,-99.99,,,-99.99,,2013-02-06 10:22:00,
2013-02-06 05:32:00,54.0,-99.9,-100.00,West,275,10.0,16.0,-999,-99.99,,,-99.99,,2013-02-06 10:32:00,
2013-02-06 05:42:00,53.0,-99.9,-100.00,West,275,11.0,16.0,-999,-99.99,,,-99.99,,2013-02-06 10:42:00,
2013-02-06 05:52:00,53.0,-99.9,-100.00,West,265,9.0,13.0,-999,-99.99,,,-99.99,,2013-02-06 10:52:00,
2013-02-06 06:02:00,53.0,-99.9,-100.00,West,270,6.0,11.0,-999,-99.99,,,-99.99,,2013-02-06 11:02:00,
2013-02-06 06:11:00,53.0,-99.9,-100.00,West,270,6.0,11.0,-999,-99.99,,,-99.99,,2013-02-06 11:11:00,
2013-02-06 06:22:00,52.0,-99.9,-100.00,West,270,6.0,9.0,-999,-99.99,,,-99.99,,2013-02-06 11:22:00,
2013-02-06 06:33:00,52.0,-99.9,-100.00,West,260,4.0,9.0,-999,-99.99,,,-99.99,,2013-02-06 11:33:00,
2013-02-06 06:42:00,52.0,-99.9,-100.00,West,260,4.0,9.0,-999,-99.99,,,-99.99,,2013-02-06 11:42:00,
2013-02-06 06:53:00,52.0,-99.9,-100.00,West,265,6.0,9.0,-999,-99.99,,,-99.99,,2013-02-06 11:53:00,
2013-02-06 07:02:00,52.0,-99.9,-100.00,WSW,255,6.0,10.0,-999,-99.99,,,-99.99,,2013-02-06 12:02:00,
2013-02-06 07:12:00,51.0,-99.9,-100.00,West,260,7.0,11.0,-999,-99.99,,,-99.99,,2013-02-06 12:12:00,
2013-02-06 07:22:00,51.0,-99.9,-100.00,WSW,255,4.0,9.0,-999,-99.99,,,-99.99,,2013-02-06 12:22:00,
2013-02-06 07:32:00,51.0,-99.9,-100.00,WSW,240,2.0,8.0,-999,-99.99,,,-99.99,,2013-02-06 12:32:00,
2013-02-06 07:42:00,51.0,-99.9,-100.00,SW,225,4.0,7.0,-999,-99.99,,,-99.99,,2013-02-06 12:42:00,
2013-02-06 07:50:00,51.0,-99.9,-100.00,West,260,5.0,9.0,-999,-99.99,,,-99.99,,2013-02-06 12:50:00,
2013-02-06 07:52:00,51.0,-99.9,-100.00,SW,220,3.0,7.0,-999,-99.99,,,-99.99,,2013-02-06 12:52:00,
2013-02-06 08:02:00,51.0,-99.9,-100.00,SW,235,5.0,9.0,-999,-99.99,,,-99.99,,2013-02-06 13:02:00,
2013-02-06 08:12:00,51.0,-99.9,-100.00,West,260,4.0,10.0,-999,-99.99,,,-99.99,,2013-02-06 13:12:00,
2013-02-06 08:22:00,51.0,-99.9,-100.00,West,260,5.0,9.0,-999,-99.99,,,-99.99,,2013-02-06 13:22:00,
2013-02-06 08:32:00,51.0,-99.9,-100.00,West,260,5.0,9.0,-999,-99.99,,,-99.99,,2013-02-06 13:32:00,
2013-02-06 08:42:00,51.0,-99.9,-100.00,West,260,5.0,9.0,-999,-99.99,,,-99.99,,2013-02-06 13:42:00,
2013-02-06 09:32:00,54.0,-99.9,-100.00,WNW,285,6.0,13.0,-999,-99.99,,,-99.99,,2013-02-06 14:32:00,
2013-02-06 09:42:00,55.0,-99.9,-100.00,NW,325,4.0,9.0,-999,-99.99,,,-99.99,,2013-02-06 14:42:00,
2013-02-06 09:52:00,55.0,-99.9,-100.00,WNW,295,9.0,14.0,-999,-99.99,,,-99.99,,2013-02-06 14:52:00,
2013-02-06 10:02:00,56.0,-99.9,-100.00,WNW,285,6.0,11.0,-999,-99.99,,,-99.99,,2013-02-06 15:02:00,
2013-02-06 10:11:00,56.0,-99.9,-100.00,West,275,5.0,9.0,-999,-99.99,,,-99.99,,2013-02-06 15:11:00,
2013-02-06 10:21:00,57.0,-99.9,-100.00,West,275,7.0,9.0,-999,-99.99,,,-99.99,,2013-02-06 15:21:00,
2013-02-06 10:32:00,58.0,-99.9,-100.00,West,270,2.0,9.0,-999,-99.99,,,-99.99,,2013-02-06 15:32:00,
2013-02-06 10:42:00,58.0,-99.9,-100.00,NW,315,3.0,7.0,-999,-99.99,,,-99.99,,2013-02-06 15:42:00,
2013-02-06 10:52:00,59.0,-99.9,-100.00,WNW,300,2.0,7.0,-999,-99.99,,,-99.99,,2013-02-06 15:52:00,
2013-02-06 11:02:00,60.0,-99.9,-100.00,SE,135,2.0,7.0,-999,-99.99,,,-99.99,,2013-02-06 16:02:00,
2013-02-06 11:11:00,61.0,-99.9,-100.00,North,350,3.0,9.0,-999,-99.99,,,-99.99,,2013-02-06 16:11:00,
2013-02-06 11:22:00,61.0,-99.9,-100.00,NNW,345,6.0,9.0,-999,-99.99,,,-99.99,,2013-02-06 16:22:00,
2013-02-06 11:32:00,62.0,-99.9,-100.00,ESE,120,1.0,8.0,-999,-99.99,,,-99.99,,2013-02-06 16:32:00,
2013-02-06 11:42:00,63.0,-99.9,-100.00,NW,305,2.0,7.0,-999,-99.99,,,-99.99,,2013-02-06 16:42:00,
2013-02-06 11:52:00,63.0,-99.9,-100.00,NNW,345,5.0,9.0,-999,-99.99,,,-99.99,,2013-02-06 16:52:00,
2013-02-06 12:02:00,64.0,-99.9,-100.00,NNE,25,2.0,10.0,-999,-99.99,,,-99.99,,2013-02-06 17:02:00,
2013-02-06 12:12:00,64.0,-99.9,-100.00,East,90,6.0,10.0,-999,-99.99,,,-99.99,,2013-02-06 17:12:00,
2013-02-06 12:22:00,64.0,-99.9,-100.00,East,80,6.0,11.0,-999,-99.99,,,-99.99,,2013-02-06 17:22:00,
2013-02-06 12:33:00,64.0,-99.9,-100.00,NE,50,5.0,11.0,-999,-99.99,,,-99.99,,2013-02-06 17:33:00,
2013-02-06 12:42:00,65.0,-99.9,-100.00,East,80,5.0,10.0,-999,-99.99,,,-99.99,,2013-02-06 17:42:00,
2013-02-06 12:53:00,65.0,-99.9,-100.00,ENE,70,6.0,12.0,-999,-99.99,,,-99.99,,2013-02-06 17:53:00,
2013-02-06 13:02:00,65.0,-99.9,-100.00,ENE,75,6.0,11.0,-999,-99.99,,,-99.99,,2013-02-06 18:02:00,
2013-02-06 13:12:00,64.0,-99.9,-100.00,NE,40,9.0,13.0,-999,-99.99,,,-99.99,,2013-02-06 18:12:00,
2013-02-06 13:23:00,65.0,-99.9,-100.00,ENE,75,7.0,11.0,-999,-99.99,,,-99.99,,2013-02-06 18:23:00,
2013-02-06 13:33:00,66.0,-99.9,-100.00,ENE,75,8.0,16.0,-999,-99.99,,,-99.99,,2013-02-06 18:33:00,
2013-02-06 13:42:00,66.0,-99.9,-100.00,ENE,70,5.0,10.0,-999,-99.99,,,-99.99,,2013-02-06 18:42:00,
2013-02-06 13:52:00,66.0,-99.9,-100.00,ENE,70,5.0,10.0,-999,-99.99,,,-99.99,,2013-02-06 18:52:00,
2013-02-06 14:02:00,66.0,-99.9,-100.00,NE,50,6.0,8.0,-999,-99.99,,,-99.99,,2013-02-06 19:02:00,
2013-02-06 14:11:00,66.0,-99.9,-100.00,NE,50,8.0,9.0,-999,-99.99,,,-99.99,,2013-02-06 19:11:00,
2013-02-06 14:22:00,66.0,-99.9,-100.00,NE,50,9.0,10.0,-999,-99.99,,,-99.99,,2013-02-06 19:22:00,
2013-02-06 14:32:00,66.0,-99.9,-100.00,NE,55,7.0,10.0,-999,-99.99,,,-99.99,,2013-02-06 19:32:00,
2013-02-06 14:42:00,67.0,-99.9,-100.00,NE,55,6.0,8.0,-999,-99.99,,,-99.99,,2013-02-06 19:42:00,
2013-02-06 14:52:00,67.0,-99.9,-100.00,NE,45,6.0,9.0,-999,-99.99,,,-99.99,,2013-02-06 19:52:00,
2013-02-06 15:01:00,65.0,-99.9,-100.00,SE,135,10.0,14.0,-999,-99.99,,,-99.99,,2013-02-06 20:01:00,
2013-02-06 15:11:00,65.0,-99.9,-100.00,SE,125,10.0,14.0,-999,-99.99,,,-99.99,,2013-02-06 20:11:00,
2013-02-06 15:22:00,65.0,-99.9,-100.00,East,95,9.0,14.0,-999,-99.99,,,-99.99,,2013-02-06 20:22:00,
2013-02-06 15:32:00,65.0,-99.9,-100.00,ESE,115,10.0,14.0,-999,-99.99,,,-99.99,,2013-02-06 20:32:00,
2013-02-06 15:42:00,65.0,-99.9,-100.00,SE,125,9.0,15.0,-999,-99.99,,,-99.99,,2013-02-06 20:42:00,
2013-02-06 15:52:00,65.0,-99.9,-100.00,SE,135,11.0,16.0,-999,-99.99,,,-99.99,,2013-02-06 20:52:00,
2013-02-06 16:02:00,64.0,-99.9,-100.00,ESE,115,11.0,15.0,-999,-99.99,,,-99.99,,2013-02-06 21:02:00,
2013-02-06 16:11:00,65.0,-99.9,-100.00,SE,125,10.0,14.0,-999,-99.99,,,-99.99,,2013-02-06 21:11:00,
2013-02-06 16:22:00,65.0,-99.9,-100.00,SE,140,9.0,15.0,-999,-99.99,,,-99.99,,2013-02-06 21:22:00,
2013-02-06 16:32:00,64.0,-99.9,-100.00,SE,125,9.0,17.0,-999,-99.99,,,-99.99,,2013-02-06 21:32:00,
2013-02-06 16:42:00,64.0,-99.9,-100.00,SE,135,10.0,14.0,-999,-99.99,,,-99.99,,2013-02-06 21:42:00,
2013-02-06 16:52:00,64.0,-99.9,-100.00,SE,140,10.0,14.0,-999,-99.99,,,-99.99,,2013-02-06 21:52:00,
2013-02-06 17:01:00,63.0,-99.9,-100.00,SE,135,9.0,14.0,-999,-99.99,,,-99.99,,2013-02-06 22:01:00,
2013-02-06 17:11:00,62.0,-99.9,-100.00,ESE,120,11.0,15.0,-999,-99.99,,,-99.99,,2013-02-06 22:11:00,
2013-02-06 17:22:00,61.0,-99.9,-100.00,ESE,110,10.0,14.0,-999,-99.99,,,-99.99,,2013-02-06 22:22:00,
2013-02-06 17:32:00,61.0,-99.9,-100.00,ESE,115,10.0,16.0,-999,-99.99,,,-99.99,,2013-02-06 22:32:00,
2013-02-06 17:42:00,61.0,-99.9,-100.00,ESE,120,10.0,15.0,-999,-99.99,,,-99.99,,2013-02-06 22:42:00,
2013-02-06 17:52:00,61.0,-99.9,-100.00,ESE,120,9.0,14.0,-999,-99.99,,,-99.99,,2013-02-06 22:52:00,
2013-02-06 18:01:00,61.0,-99.9,-100.00,ESE,120,6.0,11.0,-999,-99.99,,,-99.99,,2013-02-06 23:01:00,
2013-02-06 18:11:00,60.0,-99.9,-100.00,ESE,115,7.0,11.0,-999,-99.99,,,-99.99,,2013-02-06 23:11:00,
2013-02-06 18:21:00,60.0,-99.9,-100.00,East,85,6.0,8.0,-999,-99.99,,,-99.99,,2013-02-06 23:21:00,
2013-02-06 18:32:00,60.0,-99.9,-100.00,East,90,6.0,12.0,-999,-99.99,,,-99.99,,2013-02-06 23:32:00,
2013-02-06 18:42:00,60.0,-99.9,-100.00,ESE,110,8.0,10.0,-999,-99.99,,,-99.99,,2013-02-06 23:42:00,
2013-02-06 18:52:00,60.0,-99.9,-100.00,East,95,7.0,10.0,-999,-99.99,,,-99.99,,2013-02-06 23:52:00,
2013-02-06 19:02:00,60.0,-99.9,-100.00,East,90,5.0,11.0,-999,-99.99,,,-99.99,,2013-02-07 00:02:00,
2013-02-06 19:11:00,60.0,-99.9,-100.00,ESE,110,6.0,12.0,-999,-99.99,,,-99.99,,2013-02-07 00:11:00,
2013-02-06 19:22:00,59.0,-99.9,-100.00,East,85,6.0,11.0,-999,-99.99,,,-99.99,,2013-02-07 00:22:00,
2013-02-06 19:32:00,59.0,-99.9,-100.00,East,100,6.0,11.0,-999,-99.99,,,-99.99,,2013-02-07 00:32:00,
2013-02-06 19:42:00,59.0,-99.9,-100.00,SE,125,5.0,11.0,-999,-99.99,,,-99.99,,2013-02-07 00:42:00,
2013-02-06 19:52:00,59.0,-99.9,-100.00,East,85,6.0,10.0,-999,-99.99,,,-99.99,,2013-02-07 00:52:00,
2013-02-06 20:01:00,58.0,-99.9,-100.00,ENE,75,4.0,9.0,-999,-99.99,,,-99.99,,2013-02-07 01:01:00,
2013-02-06 20:11:00,58.0,-99.9,-100.00,East,80,4.0,9.0,-999,-99.99,,,-99.99,,2013-02-07 01:11:00,
2013-02-06 20:22:00,58.0,-99.9,-100.00,East,95,3.0,9.0,-999,-99.99,,,-99.99,,2013-02-07 01:22:00,
2013-02-06 20:32:00,57.0,-99.9,-100.00,East,85,4.0,9.0,-999,-99.99,,,-99.99,,2013-02-07 01:32:00,
2013-02-06 20:42:00,57.0,-99.9,-100.00,East,95,4.0,8.0,-999,-99.99,,,-99.99,,2013-02-07 01:42:00,
2013-02-06 20:52:00,58.0,-99.9,-100.00,East,95,6.0,10.0,-999,-99.99,,,-99.99,,2013-02-07 01:52:00,
2013-02-06 21:02:00,58.0,-99.9,-100.00,East,95,5.0,8.0,-999,-99.99,,,-99.99,,2013-02-07 02:02:00,
2013-02-06 21:12:00,57.0,-99.9,-100.00,East,85,4.0,7.0,-999,-99.99,,,-99.99,,2013-02-07 02:12:00,
2013-02-06 21:22:00,57.0,-99.9,-100.00,East,95,4.0,9.0,-999,-99.99,,,-99.99,,2013-02-07 02:22:00,
2013-02-06 21:32:00,56.0,-99.9,-100.00,East,80,4.0,8.0,-999,-99.99,,,-99.99,,2013-02-07 02:32:00,
2013-02-06 21:42:00,56.0,-99.9,-100.00,East,80,4.0,8.0,-999,-99.99,,,-99.99,,2013-02-07 02:42:00,
2013-02-06 21:52:00,56.0,-99.9,-100.00,East,80,4.0,8.0,-999,-99.99,,,-99.99,,2013-02-07 02:52:00,
2013-02-06 22:02:00,56.0,-99.9,-100.00,ENE,65,5.0,9.0,-999,-99.99,,,-99.99,,2013-02-07 03:02:00,
2013-02-06 22:11:00,55.0,-99.9,-100.00,ENE,65,6.0,10.0,-999,-99.99,,,-99.99,,2013-02-07 03:11:00,
2013-02-06 22:22:00,54.0,-99.9,-100.00,ENE,75,6.0,8.0,-999,-99.99,,,-99.99,,2013-02-07 03:22:00,
2013-02-06 22:32:00,55.0,-99.9,-100.00,ENE,75,6.0,10.0,-999,-99.99,,,-99.99,,2013-02-07 03:32:00,
2013-02-06 22:42:00,55.0,-99.9,-100.00,ENE,65,3.0,8.0,-999,-99.99,,,-99.99,,2013-02-07 03:42:00,
2013-02-06 22:52:00,54.0,-99.9,-100.00,ENE,65,4.0,6.0,-999,-99.99,,,-99.99,,2013-02-07 03:52:00,
2013-02-06 23:01:00,54.0,-99.9,-100.00,ENE,60,5.0,6.0,-999,-99.99,,,-99.99,,2013-02-07 04:01:00,
2013-02-06 23:11:00,54.0,-99.9,-100.00,ENE,60,4.0,5.0,-999,-99.99,,,-99.99,,2013-02-07 04:11:00,
2013-02-06 23:22:00,54.0,-99.9,-100.00,NE,55,5.0,5.0,-999,-99.99,,,-99.99,,2013-02-07 04:22:00,
2013-02-06 23:32:00,54.0,-99.9,-100.00,ENE,65,6.0,7.0,-999,-99.99,,,-99.99,,2013-02-07 04:32:00,
2013-02-06 23:42:00,55.0,-99.9,-100.00,ENE,60,7.0,9.0,-999,-99.99,,,-99.99,,2013-02-07 04:42:00,
2013-02-06 23:53:00,54.0,-99.9,-100.00,NE,50,7.0,8.0,-999,-99.99,,,-99.99,,2013-02-07 04:53:00,